This demonstration page uses our WeatherBlox Daily Observations layout. Learn more.

Left ArrowRight Arrow

40.97296, -117.73568

Hourly Observations for January 13, 2022

Temp ( °F °C ) Dew Point ( °F °C ) Humidity (%) Winds ( mph kmh ) Pressure ( in mb ) Visibility ( mi km ) Precip ( " mm )
12:56 am 00:56 Clear 30 -1.1 27 -2.8 88 88 ESE 6 9 30.31 1026 10 16 0.00 0.00
1:56 am 01:56 Clear 30 -1.1 27 -2.8 88 88 ENE 5 7 30.32 1027 10 16 0.00 0.00
2:56 am 02:56 Clear 28 -2.2 26 -3.3 92 92 Calm 30.30 1026 10 16 0.00 0.00
3:56 am 03:56 Clear 28 -2.2 25 -3.9 88 88 Calm 30.27 1025 10 16 0.00 0.00
4:56 am 04:56 Clear 26 -3.3 24 -4.4 92 92 NW 7 11 30.29 1026 10 16 0.00 0.00
5:56 am 05:56 Clear 26 -3.3 24 -4.4 92 92 Calm 30.27 1025 10 16 0.00 0.00
6:56 am 06:56 Clear 30 -1.1 26 -3.3 85 85 NE 5 7 30.27 1025 10 16 0.00 0.00
7:56 am 07:56 Sunny 32 0 28 -2.2 85 85 E 6 9 30.27 1025 10 16 0.00 0.00
8:56 am 08:56 Sunny 33 0.6 29 -1.7 85 85 NNE 3 6 30.25 1025 10 16 0.00 0.00
9:56 am 09:56 Sunny 37 2.8 30 -1.1 76 76 Calm 30.25 1025 10 16 0.00 0.00
10:56 am 10:56 Sunny 44 6.7 32 0 63 63 NW 5 7 30.22 1023 10 16 0.00 0.00
11:56 am 11:56 Sunny 51 10.6 32 0 48 48 WSW 7 11 30.19 1022 10 16 0.00 0.00
12:56 pm 12:56 Sunny 54 12.2 31 -0.6 42 42 WSW 9 15 30.16 1021 10 16 0.00 0.00
1:56 pm 13:56 Sunny 56 13.3 30 -1.1 37 37 W 13 20 30.14 1021 10 16 0.00 0.00
2:56 pm 14:56 Sunny 56 13.3 27 -2.8 33 33 SW 9 15 30.14 1021 10 16 0.00 0.00
3:56 pm 15:56 Sunny 53 11.7 29 -1.7 40 40 W 7 11 30.16 1022 10 16 0.00 0.00
4:56 pm 16:56 Clear 49 9.4 24 -4.4 38 38 WSW 12 19 30.20 1023 10 16 0.00 0.00
5:56 pm 17:56 Clear 41 5 24 -4.4 51 51 WNW 7 11 30.25 1024 10 16 0.00 0.00
6:56 pm 18:56 Clear 39 3.9 24 -4.4 55 55 N 6 9 30.28 1025 10 16 0.00 0.00
7:56 pm 19:56 Clear 37 2.8 25 -3.9 62 62 WSW 3 6 30.29 1026 10 16 0.00 0.00
8:56 pm 20:56 Clear 35 1.7 26 -3.3 70 70 WNW 6 9 30.31 1027 10 16 0.00 0.00
9:56 pm 21:56 Clear 32 0 26 -3.3 79 79 VRB 3 6 30.33 1027 10 16 0.00 0.00
10:56 pm 22:56 Mostly Cloudy 33 0.6 26 -3.3 75 75 Calm 30.34 1028 10 16 0.00 0.00
11:56 pm 23:56 Cloudy 38 3.3 29 -1.7 70 70 NW 7 11 30.33 1027 10 16 0.00 0.00

Powered by AerisWeather